Regional Weather Roundup
Issued by NWS

Home | Current Version | Previous Version | Text Only | Print | Product List | Glossary Off
Versions: 1 2 3 4 5 6 7 8 9 10 11 12 13 14 15 16 17 18 19 20 21 22 23 24 25 26 27 28 29 30 31 32 33 34 35 36 37 38 39 40 41 42 43 44 45 46 47 48 49 50

000
ASUS44 KMEG 180310
RWRTN
TENNESSEE HOURLY STATE WEATHER ROUNDUP
NATIONAL WEATHER SERVICE MEMPHIS TN
1000 PM CDT FRI APR 17 2015

TNZ002-004-019-021-049-052-054-088>092-180400-
WEST TENNESSEE

CITY           SKY/WX    TMP DP  RH WIND       PRES   REMARKS
MEMPHIS INTL   PTCLDY    67  62  84 E7        30.02R
NWS MEMPHIS      N/A     64 N/A N/A MISG        N/A
JACKSON        CLEAR     59  57  93 S3        30.02F FOG
DYERSBURG      CLEAR     64  52  63 CALM      30.03R
UNION CITY     CLEAR     61  32  33 CALM      30.02R
PARIS          CLEAR     61  61 100 CALM      30.03R
LEXINGTON      CLEAR     59  59 100 CALM      30.02S
SAVANNAH       CLOUDY    64  32  29 CALM      30.04S
$$

TNZ008-025-027-028-033-062-065-066-180400-
NORTH MIDDLE TENNESSEE

CITY           SKY/WX    TMP DP  RH WIND       PRES   REMARKS
NASHVILLE      MOCLDY    62  59  90 S5        30.03R
CLARKSVILLE    CLEAR     61  59  93 N5        30.02R
SMYRNA         PTCLDY    61  60  96 CALM      30.04R
COOKEVILLE     CLEAR     61  61 100 CALM      30.03S
CROSSVILLE     CLOUDY    61  57  87 CALM      30.06F
$$

TNZ061-075-076-078-094-096-097-180400-
SOUTH MIDDLE TENNESSEE

CITY           SKY/WX    TMP DP  RH WIND       PRES   REMARKS
FAYETTEVILLE   CLOUDY    63  61  94 CALM      30.05R
TULLAHOMA      CLOUDY    63  59  88 CALM      30.06R
WINCHESTER     PTCLDY    61  59  94 CALM      30.05S
MCMINNVILLE    PTCLDY    63  63 100 CALM      30.04S
COLUMBIA       CLEAR     61  32  33 CALM      30.01F
SHELBYVILLE    CLOUDY    64  64 100 CALM      30.05R
$$

TNZ017-018-042-046-047-180400-
NORTHEAST TENNESSEE

CITY           SKY/WX    TMP DP  RH WIND       PRES   REMARKS
TRI CITIES     CLOUDY    62  58  86 CALM      30.05R
ELIZABETHTON   CLEAR     59  55  88 CALM      30.06R
$$

TNZ012-013-036-069-073-074-180400-
CENTRAL EAST TENNESSEE

CITY           SKY/WX    TMP DP  RH WIND       PRES   REMARKS
KNOXVILLE      CLOUDY    64  61  90 CALM      30.04R
OAK RIDGE      CLOUDY    64  60  87 CALM      30.05F
GATLINBURG     CLOUDY    63  59  88 CALM      30.05R
MORRISTOWN     CLOUDY    63  61  94 CALM      30.06S
$$

TNZ083-085-099-180400-
SOUTHEAST TENNESSEE

CITY           SKY/WX    TMP DP  RH WIND       PRES   REMARKS
CHATTANOOGA    CLOUDY    61  60  97 CALM      30.05R
$$

SKY/WX REPORTED AS FAIR MEANS FEW OR NO CLOUDS BELOW
12 THOUSAND FEET.



USA.gov is the U.S. government's official web portal to all federal, state and local government web resources and services.